Вернуться в каталог

FENGYUN 1C DEB

АктивенPO
NORAD 29835·DEBRIS·🇨🇳 China

Запущен May 10, 1999 с Taiyuan Satellite Launch Center

Loading…

Ближайшие Пролёты (ближайшие 24 часа)

TLE

СвежийSource: Space-Track

Эпоха: Sep 14, 2026, 08:45 UTC

1 29835U 99025ED  26257.36512865  .00000146  00000-0  51409-4 0  9994
2 29835  99.0664  47.8929 0165944 299.8698  86.9965 14.43568717 34693

Отслеживайте FENGYUN 1C DEB в реальном времени с AllMySat

Download on the App Store